Theta_e
318 317 317 317 317 317 317 317 317 317 317 317 317 317 317 317 316 303 299 307 310 316 318 305 302 300 298 295 298 302 291 288 291 292 295 302 299 304 306 303 305 308 308 316 327
317 316 316 315 315 316 316 316 316 317 317 317 316 316 317 316 308 299 309 314 315 317 305 298 297 298 291 294 297 295 289 291 294 296 294 296 295 298 296 296 300 302 305 304 323
316 316 315 315 315 315 316 316 316 316 316 316 316 316 316 312 302 297 313 314 315 317 305 300 299 297 291 293 294 295 290 294 294 296 294 293 292 293 290 292 296 295 295 297 298
316 315 314 314 314 315 315 315 315 316 316 316 315 316 317 306 289 300 316 317 317 309 301 299 297 293 290 289 294 289 292 292 295 295 293 290 292 289 289 289 294 293 294 295 297
315 314 313 313 313 314 315 315 315 315 316 316 315 316 308 295 294 304 313 310 305 303 299 298 294 293 289 291 291 288 291 293 293 292 291 292 290 289 290 293 295 295 298 297 298
316 314 314 313 313 314 314 315 315 315 315 314 315 316 303 290 302 303 302 303 303 301 298 298 296 297 294 290 289 291 291 291 292 291 292 290 287 287 289 292 294 296 296 297 294
316 315 314 314 314 314 314 315 315 314 313 314 315 309 295 292 300 301 302 301 302 302 298 299 299 295 294 290 294 292 288 289 290 292 289 287 284 284 288 293 292 292 292 292 292
315 314 314 314 313 314 314 314 314 313 312 313 313 303 289 301 298 301 301 300 302 303 301 301 301 298 294 294 292 288 286 279 287 288 288 286 278 287 290 291 290 291 291 292 292
315 314 314 314 314 313 313 313 313 312 311 312 302 296 288 304 297 300 299 298 299 299 300 302 299 292 292 284 281 281 275 278 281 287 287 286 282 287 290 291 289 291 291 292 292
315 314 314 314 313 312 311 310 310 308 306 305 298 289 293 292 297 299 299 300 296 295 295 294 290 285 282 279 269 276 276 279 279 285 286 285 284 287 288 289 289 290 291 292 292
315 314 314 314 312 310 305 299 294 293 294 290 291 291 294 297 300 297 299 297 296 291 283 288 280 277 279 282 283 282 280 278 282 286 284 283 283 285 288 289 288 289 290 290 289
315 314 313 313 312 311 304 294 294 294 286 295 294 294 297 297 292 295 298 290 289 283 285 282 278 283 286 286 284 282 279 275 282 286 284 282 282 286 288 287 288 289 287 289 290
314 313 313 313 312 304 298 297 302 299 286 291 293 294 294 294 289 291 293 291 286 284 283 279 283 287 285 282 281 280 278 278 278 282 283 282 277 281 285 287 289 290 290 290 290
314 313 313 312 302 298 296 302 302 296 280 284 287 291 293 293 288 295 294 290 288 282 283 282 285 284 281 281 282 278 283 283 281 275 267 280 268 278 283 284 287 289 287 287 289
314 313 313 311 299 296 300 301 299 293 272 285 286 295 292 289 289 290 294 290 284 283 282 281 282 281 280 282 284 279 284 282 281 274 270 270 270 276 282 281 283 286 288 287 289
313 312 313 305 299 299 301 297 294 278 272 280 287 285 285 288 288 289 289 291 289 285 284 282 286 284 282 285 285 286 283 281 280 272 268 270 270 273 276 280 283 286 287 288 289
313 312 308 305 296 300 298 292 277 271 280 276 279 284 282 282 284 284 283 281 280 273 275 281 282 284 286 280 284 282 276 263 263 262 265 275 268 274 280 283 284 285 286 287 289
312 312 307 302 301 299 294 279 269 275 274 282 282 282 278 282 280 281 279 277 282 281 274 272 270 281 285 281 278 278 277 265 258 263 267 276 267 275 284 285 286 286 286 288 289
312 303 300 302 303 299 285 271 275 276 282 278 280 276 276 280 278 278 277 276 282 283 274 273 275 282 284 284 282 279 275 280 265 263 264 268 274 281 283 284 285 285 286 287 288
302 298 298 303 301 296 285 277 277 285 284 281 276 277 272 276 273 273 276 280 282 285 284 278 270 280 281 283 283 280 282 270 267 263 258 266 268 273 278 280 283 283 283 286 288
298 292 296 301 299 290 280 279 282 284 286 281 276 277 279 277 276 271 273 280 285 283 284 280 275 275 280 277 276 277 276 277 274 270 264 263 270 278 277 279 282 282 285 286 287
296 286 296 298 284 284 282 283 287 282 287 284 282 280 278 279 276 275 273 277 285 284 279 281 276 268 274 279 281 280 278 278 267 266 271 270 271 283 283 283 283 284 285 286 287
288 285 292 293 282 282 284 283 283 282 283 283 281 282 282 279 273 277 274 282 285 281 279 281 269 261 268 274 281 277 278 279 277 274 272 265 271 282 283 283 284 283 284 286 286
287 281 283 285 286 285 280 280 280 285 284 285 283 283 280 278 279 273 274 281 284 280 288 284 272 269 267 270 274 274 275 277 275 263 271 272 274 278 280 280 282 283 285 285 286
289 284 285 279 282 284 284 283 281 280 285 285 282 281 280 277 277 272 275 279 282 286 283 278 268 272 274 275 275 275 275 275 273 274 269 273 273 277 279 280 282 284 285 284 285
286 284 285 285 285 283 284 283 281 283 282 281 280 282 282 279 279 275 277 278 278 280 279 279 265 269 264 272 274 272 274 275 275 275 274 274 274 280 281 282 283 283 283 283 283
291 291 289 286 284 283 284 285 284 284 284 286 284 282 281 282 283 282 282 281 280 279 277 277 269 263 262 269 265 264 269 273 273 274 274 271 277 279 280 282 281 280 282 282 283
Wind_Speed
9 11 11 11 12 13 13 14 15 15 16 17 18 18 18 18 14 8 8 6 8 16 17 8 9 7 1 2 3 2 2 3 5 3 4 7 9 7 7 4 6 8 5 9 5
9 10 11 11 11 11 11 11 12 12 13 14 15 16 17 16 2 7 5 11 13 15 7 6 7 8 2 2 1 4 3 7 1 2 1 5 6 8 10 14 6 9 13 6 5
10 11 11 11 11 10 11 11 11 12 13 14 15 16 17 9 2 4 11 14 14 15 5 4 5 2 2 3 2 2 5 5 3 3 4 5 8 5 5 6 2 10 17 16 9
10 11 11 10 12 11 11 11 11 12 13 13 14 15 16 2 2 4 10 13 16 11 8 8 6 2 2 2 3 2 3 3 6 7 5 5 6 9 6 8 9 10 9 7 11
7 8 9 9 10 11 12 12 12 12 13 14 14 13 6 3 2 6 11 11 9 10 8 6 7 5 4 2 4 3 6 8 10 11 9 7 5 7 13 14 12 9 8 9 9
6 8 10 9 10 11 11 12 12 13 14 15 14 13 2 1 4 6 8 5 7 8 6 7 3 4 2 1 1 2 6 9 6 7 6 4 5 3 8 8 8 8 9 10 9
5 8 9 9 11 11 12 12 12 13 15 12 10 4 1 4 3 5 7 2 2 4 4 4 4 4 1 2 1 2 4 6 4 4 5 4 6 5 6 6 7 10 10 10 10
5 7 9 9 10 11 11 11 12 12 12 11 8 2 1 1 1 5 7 3 8 2 3 3 3 3 1 2 2 2 1 4 2 3 2 6 7 10 10 13 20 19 15 12 11
5 6 7 9 9 11 14 14 13 14 10 11 3 1 1 0 3 4 3 3 7 4 3 4 2 2 5 3 4 8 2 4 9 7 5 6 11 9 12 17 17 17 16 15 13
5 6 7 9 9 11 13 15 10 8 4 3 3 3 3 2 2 4 5 4 3 4 3 1 2 3 5 6 2 4 3 4 6 7 10 14 21 15 10 16 20 16 14 15 16
6 5 8 8 8 12 9 4 5 3 6 3 1 1 2 6 1 2 4 4 3 2 3 1 6 2 2 3 2 3 4 6 9 12 11 8 18 22 20 16 19 16 14 14 12
6 5 6 8 8 11 4 3 3 3 4 0 1 2 2 2 3 5 7 5 5 4 5 6 1 4 2 3 3 4 6 8 8 3 11 18 25 21 17 10 10 13 11 14 11
7 5 5 6 8 4 4 1 1 1 1 1 1 2 0 3 2 5 6 3 4 5 5 1 1 3 1 4 4 4 5 4 6 6 6 12 11 3 3 8 9 11 9 9 7
8 6 5 4 3 2 1 3 1 0 5 2 1 1 1 1 2 2 3 2 2 2 3 4 2 1 3 3 3 4 1 4 6 6 2 6 11 7 7 9 8 12 8 8 7
10 7 5 3 2 0 2 1 1 3 5 1 1 2 0 2 0 2 1 3 2 2 5 4 3 1 2 4 1 8 6 8 10 4 4 6 2 11 6 9 7 9 8 8 6
12 9 7 1 2 3 4 3 4 9 8 3 2 1 0 1 1 1 2 2 1 3 3 7 2 5 5 4 5 5 5 10 2 4 1 5 6 11 5 6 6 5 4 5 7
15 12 8 3 4 5 4 4 7 5 5 5 4 4 1 2 1 2 2 1 1 5 4 4 4 3 3 3 3 5 6 6 9 5 8 8 4 15 11 13 6 7 6 7 7
16 13 2 2 4 6 4 8 4 4 7 2 2 3 4 3 1 1 1 2 3 3 1 2 7 7 5 4 2 1 6 7 7 5 10 8 9 10 12 10 8 6 6 6 14
18 3 3 2 4 2 6 4 11 9 6 9 3 3 2 1 4 1 5 5 5 8 7 2 6 2 4 3 6 1 3 4 1 3 3 6 8 16 13 7 7 8 8 13 11
5 3 2 4 4 2 3 7 6 4 8 3 7 5 7 5 3 4 4 4 5 3 4 2 4 3 4 4 5 6 1 4 3 5 7 8 9 16 15 9 9 11 11 17 15
4 3 2 4 4 3 5 7 5 4 6 6 7 5 6 8 8 5 5 3 5 4 4 2 3 6 3 6 8 2 2 3 2 4 5 7 11 8 8 9 17 12 19 26 20
5 3 3 2 4 3 6 6 4 5 2 2 4 3 8 9 6 4 8 6 3 8 7 3 4 4 11 3 3 6 8 7 6 8 6 4 23 15 19 13 8 28 24 23 24
4 3 3 2 5 6 3 4 4 6 6 7 7 5 4 7 1 6 4 1 6 6 8 5 2 4 11 7 4 4 4 5 2 1 17 4 17 4 15 29 25 23 24 23 13
4 5 1 1 1 6 6 5 6 4 4 6 6 5 3 3 2 6 5 3 6 5 6 7 3 8 9 7 2 6 6 5 5 3 18 20 34 36 28 27 26 26 22 13 18
3 4 6 8 12 10 8 8 12 9 6 7 5 9 9 6 4 5 3 3 3 7 4 6 6 5 9 9 11 18 22 20 20 24 12 30 25 31 28 27 28 19 17 18 23
6 6 3 3 1 19 9 11 13 12 11 8 8 12 10 9 11 12 9 6 7 5 7 4 5 2 5 8 10 18 21 19 21 19 19 29 32 26 23 15 20 22 16 21 23
2 2 5 8 8 13 17 22 19 10 4 6 13 7 12 15 2 2 4 5 9 12 9 8 4 3 7 4 9 13 13 7 4 6 8 8 13 7 19 19 22 17 14 20 23
Wind_Direction
15 13 7 2 358 353 352 353 354 353 353 352 351 348 344 342 332 29 40 316 328 322 322 288 358 353 335 277 232 78 82 245 249 245 280 3 6 338 311 22 319 13 49 23 54
18 9 359 354 352 348 344 343 344 344 345 344 343 343 342 339 305 68 337 339 328 319 324 334 329 340 5 233 325 96 150 223 122 134 333 327 26 317 354 340 317 345 343 30 78
6 1 352 349 348 345 343 341 340 338 339 342 343 343 342 337 353 350 346 342 328 318 268 269 259 256 353 67 7 343 201 317 4 70 45 342 336 340 345 304 342 317 313 320 326
359 351 344 343 341 338 337 336 332 331 331 335 339 339 332 332 56 339 347 336 323 327 358 350 1 49 80 80 25 3 294 8 312 337 358 329 298 311 265 245 268 282 282 309 326
345 340 340 337 334 330 326 326 323 323 325 328 332 337 9 35 3 324 341 336 343 349 31 2 24 357 75 32 31 7 335 333 334 328 310 298 287 271 282 277 283 296 305 308 308
338 334 331 329 326 325 321 321 321 321 322 322 325 329 68 170 287 350 333 343 343 358 20 23 11 313 325 360 98 328 308 292 286 279 272 293 280 17 283 312 316 330 313 300 295
323 327 323 317 318 318 316 315 315 315 316 313 312 307 44 179 332 351 345 283 288 358 352 6 340 16 3 329 291 243 310 317 286 272 277 35 305 227 254 307 307 294 279 276 272
312 321 321 323 319 314 308 304 303 303 304 302 304 290 136 227 354 7 343 355 352 266 312 279 308 292 205 351 303 231 141 23 267 242 21 78 265 296 314 335 318 294 289 283 267
277 306 314 319 316 313 306 300 289 290 283 285 296 167 32 289 27 324 346 318 303 280 262 271 315 311 342 333 32 13 329 332 332 339 359 52 288 264 289 297 284 289 287 279 280
277 299 317 317 314 310 308 293 281 316 290 264 275 40 21 351 327 315 280 264 252 307 308 303 8 44 11 45 221 292 329 304 277 288 314 291 275 280 279 283 281 288 282 281 277
265 297 313 310 311 315 344 11 19 355 38 133 127 296 34 311 247 311 310 303 235 149 50 339 57 101 138 102 166 219 241 259 275 285 321 278 288 292 288 283 281 280 277 276 258
250 277 302 298 295 311 325 66 146 212 314 320 102 131 129 328 297 350 359 55 17 1 15 23 126 181 190 212 241 256 277 272 281 22 337 296 293 283 277 267 259 266 269 274 281
232 249 280 279 300 328 104 110 339 16 187 147 71 41 63 1 18 343 18 318 68 14 17 181 262 187 270 314 306 281 242 282 263 349 279 323 297 333 275 295 293 284 272 292 274
217 235 264 274 329 282 86 170 268 206 60 271 65 28 48 24 67 10 355 79 25 40 359 252 228 253 304 284 255 280 322 316 325 40 277 79 288 276 281 278 268 279 293 282 321
201 209 235 201 259 144 212 145 320 50 10 40 145 301 337 77 170 337 349 15 60 301 81 243 185 179 277 229 144 240 348 303 289 195 64 323 41 269 273 278 284 292 292 337 325
189 190 174 191 287 209 128 46 44 44 256 178 123 138 141 243 201 76 93 82 75 324 204 236 161 174 206 312 239 295 326 309 333 118 230 239 131 278 280 219 283 296 322 297 307
181 178 168 150 222 164 100 62 37 143 358 257 186 148 226 159 145 22 6 29 133 26 318 292 206 172 113 313 13 38 42 347 346 354 223 185 25 242 277 281 240 255 278 292 311
171 164 217 258 150 122 73 53 124 236 208 284 125 112 156 122 316 120 347 325 248 185 282 149 326 167 167 168 230 317 132 147 255 274 280 294 230 249 233 273 279 239 266 306 313
148 112 139 193 123 67 79 102 204 201 163 150 48 121 238 142 129 148 209 205 208 183 182 122 271 102 142 121 128 157 187 168 157 242 351 249 284 292 273 274 287 315 308 310 284
124 118 100 132 80 26 88 226 222 181 125 100 162 149 180 199 136 121 218 211 199 145 124 219 310 274 115 73 258 179 159 61 5 291 295 271 269 253 292 282 284 297 299 306 295
84 125 44 75 62 44 223 233 235 238 131 159 204 158 190 180 172 198 221 265 167 130 85 134 112 290 52 190 184 105 251 191 172 172 221 291 278 221 251 268 294 287 305 308 303
133 153 19 329 121 192 216 200 217 184 105 145 128 149 182 169 172 225 213 196 155 138 169 205 148 264 233 239 195 190 203 166 145 262 244 233 272 290 285 276 305 307 301 299 298
107 108 346 8 187 203 227 254 250 156 181 176 208 199 203 169 208 198 208 294 137 149 164 179 258 350 340 2 338 221 203 211 239 48 248 252 271 200 299 309 301 302 299 299 303
133 135 123 186 197 223 163 218 233 222 190 174 166 120 115 194 207 197 208 227 160 157 144 125 196 181 204 196 111 273 248 231 189 211 281 243 277 287 296 300 304 303 303 309 312
160 188 178 178 222 198 178 188 199 207 223 184 207 186 163 178 173 214 196 145 153 190 170 149 213 210 262 272 275 267 264 255 239 246 240 277 275 283 292 299 298 299 323 320 313
160 156 163 209 299 192 194 202 205 202 164 220 226 184 182 180 189 194 150 182 189 159 164 182 263 98 294 272 263 270 263 255 253 255 253 258 271 276 280 296 306 316 323 315 324
130 330 137 174 171 175 207 211 215 159 237 203 203 140 209 219 148 227 159 168 161 158 180 169 151 66 269 310 337 289 250 204 209 196 198 235 278 312 306 313 308 320 318 324 322